STARLINK-31021, 58518

Orbit data source: Space-Track

STARLINK-31021, 58518 is a payload satellite owned by SpaceX/Seattle (US) in LEO that was launched on Thu, 07 Dec 2023 UTC via an FALCON 9 launch vehicle from the Air Force Eastern Test Range (AFETR). Payload-class satellites include a variety of spacecraft equipped with specific instruments for various scientific and technological missions. These include communications satellites like Starlink; space stations such as the ISS; scientific satellites like the Hubble; Earth observation satellites from companies like Planet Labs, Umbra, and HawkEye 360; GPS; miniature CubeSats for education and research; and military/defense satellites.

Loading next visibility...
Identifier
58518, 2023-191L
Orbit
LEO
Country
Flag of USUS
Related business
Manufacturer
SpaceX/Seattle
Mission
Operational Commercial Communications
Bus & Motor
STARLINK V2M, Unknown motor
Mass
730 kg wet, ~700 kg dry
Launch date (UTC)
2023-12-07 (3 years ago)
Launch vehicle
FALCON 9
Launch site
Air Force Eastern Test Range (AFETR)
Object type
Payload
Rocket body
Debris
Shape & HBR
Box + 2 Pan, 17.7 m
Radar Cross Section
33.884 m², Large (>1 m²)

Expand to show TLE details & history
Last TLE update: 2 days ago

TLE from 2 days ago
0 STARLINK-31021
1 58518U 23191L   26171.24703036  .00000492  00000-0  27384-4 0  9998
2 58518  42.9990 244.4362 0000460 237.6821 122.3986 15.27578475141150
Epoch: 2026-06-20T05:55Z
TLE epoch observation values (Epoch: 2026-06-20T05:55:43.423Z)
Latitude
-0.00001°
Longitude
-112.95914°
Altitude
482.998 km
Speed
7.626 km/s
True Right ascension
16h 17m 44s
True Declination
0° 00' 00"
Sunlit
Object was in full shadow at epoch
Visualization orbit readout
Latitude
Unknown
Longitude
Unknown
Altitude
Unknown
Speed
Unknown
Apparent Right ascension
Unknown
Apparent Declination
Unknown
Sunlit
N/A
Visualization observer readout
Local Sidereal Time
21:58:27
Azimuth
Unknown
Elevation
Unknown
Doppler factor
Unknown
Orbital elements
Apogee altitude
485.315 km
Perigee altitude
484.683 km
Semi-major axis
6,863.136 km
Eccentricity
0.00005
Inclination
42.999°
RAAN
244.4362°
Arg. of periapsis
237.6821°
True anomaly
122.40305°
Mean anomaly
122.3986°
Eccentric anomaly
122.40083°
Mean motion
3.81733 °/min
Orbital period
94.31 mins
BSTAR
0.000027384
Loading maneuver chart data...
Computing Atmospheric mass density...
Loading historical data...
Loading historical data...
Loading historical data...
Loading historical data...
Loading historical data...
Loading historical data...
Loading historical data...

Documentation

Showing up to 5 results
|